Weather History for Clinton, IA

Change the Weather History Date:

Saturday, February 9, 2013

  Actual Average Record
Temperature  
Mean Temperature 28 °F -  
Max Temperature 33 °F 30 °F 57 °F (2009)
Min Temperature 24 °F 12 °F -20 °F (1951)
Degree Days  
Heating Degree Days 36    
Moisture  
Dew Point 23 °F    
Average Humidity 79    
Maximum Humidity 93    
Minimum Humidity 70    
Precipitation  
Precipitation 0.00 in - - ()
Sea Level Pressure  
Sea Level Pressure 30.23 in    
Wind  
Wind Speed 12 mph (SSE)    
Max Wind Speed 22 mph    
Max Gust Speed 24 mph    
Visibility 9 miles    
Events      
Averages and records for this station are not official NWS values.
T = Trace of Precipitation, MM = Missing Value Source: NWS Daily Summary

Daily Weather History Graph

Daily Weather History Graph

Search for Another Location

Airport:

Trip Planner

Search our weather history database for the weather conditions in past years. The results will help you decide how hot, cold, wet, or windy it might be!

Date:

Astronomy

Feb. 09, 2013 Rise Set
Actual Time 7:04 AM CST 5:27 PM CST
Civil Twilight 6:35 AM CST 5:56 PM CST
Nautical Twilight 6:02 AM CST 6:29 PM CST
Astronomical Twilight 5:30 AM CST 7:01 PM CST
Moon 6:15 AM CST (2/9) 5:10 PM CST (2/9)
Length of Visible Light 11h 20m
Length of Day
10h 22m
Waning Crescent, 0% of the Moon is Illuminated
Feb 9
Waning Crescent
Feb 10
New
Feb 17
First Quarter
Feb 25
Full
Mar 4
Last Quarter

Hourly Weather History & Observations

Time (CST) Temp. Windchill Dew Point Humidity Pressure Visibility Wind Dir Wind Speed Gust Speed Precip Events Conditions
12:15 AM 26.6 °F 17.5 °F 19.4 °F 74% 30.38 in 10.0 mi SE 9.2 mph - N/A   Overcast
12:35 AM 26.6 °F 16.2 °F 19.4 °F 74% 30.39 in 10.0 mi SSE 11.5 mph - N/A   Overcast
12:55 AM 26.6 °F 16.8 °F 19.4 °F 74% 30.38 in 10.0 mi SSE 10.4 mph - N/A   Overcast
1:15 AM 24.8 °F 16.1 °F 19.4 °F 80% 30.38 in 10.0 mi South 8.1 mph - N/A   Overcast
1:35 AM 24.8 °F 14.6 °F 19.4 °F 80% 30.37 in 10.0 mi SSE 10.4 mph - N/A   Overcast
1:55 AM 24.8 °F 14.6 °F 19.4 °F 80% 30.37 in 10.0 mi SE 10.4 mph - N/A   Overcast
2:15 AM 24.8 °F 16.1 °F 19.4 °F 80% 30.37 in 10.0 mi SSE 8.1 mph - N/A   Overcast
2:35 AM 24.8 °F 16.9 °F 19.4 °F 80% 30.37 in 10.0 mi SSE 6.9 mph - N/A   Overcast
2:55 AM 24.8 °F 15.3 °F 19.4 °F 80% 30.36 in 10.0 mi SE 9.2 mph - N/A   Overcast
3:15 AM 24.8 °F 15.3 °F 19.4 °F 80% 30.35 in 10.0 mi SSE 9.2 mph - N/A   Overcast
3:35 AM 24.8 °F 14.0 °F 19.4 °F 80% 30.36 in 10.0 mi SSE 11.5 mph - N/A   Overcast
3:55 AM 24.8 °F 14.6 °F 19.4 °F 80% 30.36 in 10.0 mi SSE 10.4 mph - N/A   Overcast
4:15 AM 24.8 °F 14.0 °F 19.4 °F 80% 30.36 in 10.0 mi SSE 11.5 mph - N/A   Overcast
4:35 AM 24.8 °F 12.9 °F 19.4 °F 80% 30.35 in 10.0 mi SSE 13.8 mph - N/A   Overcast
4:55 AM 24.8 °F 14.0 °F 19.4 °F 80% 30.36 in 10.0 mi South 11.5 mph - N/A   Overcast
5:15 AM 24.8 °F 13.4 °F 19.4 °F 80% 30.35 in 10.0 mi South 12.7 mph - N/A   Overcast
5:35 AM 24.8 °F 13.4 °F 19.4 °F 80% 30.34 in 10.0 mi South 12.7 mph - N/A   Overcast
5:55 AM 26.6 °F 19.1 °F 21.2 °F 80% 30.36 in 10.0 mi SSE 6.9 mph - N/A   Overcast
6:15 AM 26.6 °F 16.2 °F 19.4 °F 74% 30.35 in 10.0 mi SSE 11.5 mph - N/A   Overcast
6:35 AM 26.6 °F 16.8 °F 21.2 °F 80% 30.35 in 10.0 mi SSE 10.4 mph - N/A   Overcast
6:55 AM 26.6 °F 16.8 °F 21.2 °F 80% 30.35 in 10.0 mi SSE 10.4 mph - N/A   Overcast
7:15 AM 26.6 °F 16.2 °F 21.2 °F 80% 30.35 in 10.0 mi SSE 11.5 mph - N/A   Overcast
7:35 AM 26.6 °F 15.7 °F 21.2 °F 80% 30.35 in 10.0 mi South 12.7 mph 16.1 mph N/A   Overcast
7:55 AM 26.6 °F 16.2 °F 21.2 °F 80% 30.35 in 10.0 mi South 11.5 mph 19.6 mph N/A   Overcast
8:15 AM 26.6 °F 15.7 °F 21.2 °F 80% 30.34 in 10.0 mi SSE 12.7 mph - N/A   Overcast
8:35 AM 26.6 °F 15.7 °F 21.2 °F 80% 30.34 in 10.0 mi SSE 12.7 mph 18.4 mph N/A   Overcast
8:55 AM 26.6 °F 15.2 °F 21.2 °F 80% 30.33 in 10.0 mi SSE 13.8 mph - N/A   Overcast
9:15 AM 26.6 °F 15.2 °F 21.2 °F 80% 30.33 in 10.0 mi South 13.8 mph - N/A   Overcast
9:35 AM 28.4 °F 16.6 °F 21.2 °F 74% 30.32 in 10.0 mi SSE 16.1 mph - N/A   Overcast
9:55 AM 28.4 °F 16.6 °F 21.2 °F 74% 30.32 in 10.0 mi South 16.1 mph 21.9 mph N/A   Overcast
10:15 AM 28.4 °F 16.6 °F 21.2 °F 74% 30.31 in 10.0 mi South 16.1 mph - N/A   Overcast
10:35 AM 28.4 °F 17.0 °F 21.2 °F 74% 30.30 in 10.0 mi SSE 15.0 mph - N/A   Overcast
10:55 AM 28.4 °F 14.7 °F 21.2 °F 74% 30.28 in 8.0 mi SSE 21.9 mph - N/A   Overcast
11:15 AM 28.4 °F 15.1 °F 21.2 °F 74% 30.27 in 8.0 mi South 20.7 mph - N/A   Overcast
11:35 AM 30.2 °F 18.1 °F 23.0 °F 75% 30.26 in 9.0 mi SSE 18.4 mph 24.2 mph N/A   Overcast
11:55 AM 30.2 °F 17.4 °F 23.0 °F 75% 30.25 in 10.0 mi SSE 20.7 mph - N/A   Overcast
12:15 PM 30.2 °F 17.8 °F 24.8 °F 80% 30.24 in 10.0 mi South 19.6 mph - N/A   Overcast
12:35 PM 30.2 °F 19.8 °F 23.0 °F 75% 30.24 in 10.0 mi SSE 13.8 mph - N/A   Overcast
12:55 PM 30.2 °F 19.3 °F 24.8 °F 80% 30.23 in 10.0 mi SSE 15.0 mph 20.7 mph N/A   Overcast
1:15 PM 32.0 °F 20.8 °F 24.8 °F 75% 30.22 in 10.0 mi South 17.3 mph - N/A   Overcast
1:35 PM 32.0 °F 21.2 °F 24.8 °F 75% 30.21 in 10.0 mi SSE 16.1 mph - N/A   Overcast
1:55 PM 32.0 °F 23.6 °F 24.8 °F 75% 30.21 in 10.0 mi South 10.4 mph - N/A   Overcast
2:15 PM 33.8 °F 24.8 °F 24.8 °F 70% 30.20 in 10.0 mi South 12.7 mph - N/A   Overcast
2:35 PM 33.8 °F 24.8 °F 24.8 °F 70% 30.19 in 10.0 mi SSE 12.7 mph 16.1 mph N/A   Overcast
2:55 PM 33.8 °F 25.3 °F 24.8 °F 70% 30.18 in 10.0 mi SSE 11.5 mph - N/A   Overcast
3:15 PM 33.8 °F 24.3 °F 26.6 °F 75% 30.17 in 10.0 mi SE 13.8 mph - N/A   Mostly Cloudy
3:35 PM 33.8 °F 23.9 °F 24.8 °F 70% 30.16 in 10.0 mi SSE 15.0 mph - N/A   Scattered Clouds
3:55 PM 33.8 °F 24.3 °F 24.8 °F 70% 30.15 in 10.0 mi SSE 13.8 mph - N/A   Mostly Cloudy
4:15 PM 33.8 °F 24.3 °F 24.8 °F 70% 30.14 in 10.0 mi SSE 13.8 mph - N/A   Overcast
4:35 PM 32.0 °F 24.2 °F 24.8 °F 75% 30.13 in 10.0 mi SSE 9.2 mph - N/A   Mostly Cloudy
4:55 PM 32.0 °F 22.1 °F 24.8 °F 75% 30.13 in 10.0 mi SSE 13.8 mph - N/A   Scattered Clouds
5:15 PM 32.0 °F 23.6 °F 26.6 °F 80% 30.12 in 10.0 mi SE 10.4 mph - N/A   Partly Cloudy
5:35 PM 30.2 °F 20.8 °F 24.8 °F 80% 30.12 in 10.0 mi SE 11.5 mph - N/A   Clear
5:55 PM 30.2 °F 20.2 °F 24.8 °F 80% 30.11 in 10.0 mi ESE 12.7 mph - N/A   Partly Cloudy
6:15 PM 30.2 °F 19.8 °F 24.8 °F 80% 30.10 in 10.0 mi ESE 13.8 mph - N/A   Scattered Clouds
6:35 PM 30.2 °F 20.8 °F 24.8 °F 80% 30.11 in 10.0 mi SE 11.5 mph - N/A   Partly Cloudy
6:55 PM 30.2 °F 20.8 °F 24.8 °F 80% 30.10 in 10.0 mi SE 11.5 mph - N/A   Clear
7:35 PM 30.2 °F 20.2 °F 26.6 °F 86% 30.10 in 10.0 mi SE 12.7 mph - N/A   Clear
7:55 PM 30.2 °F 19.8 °F 26.6 °F 86% 30.10 in 10.0 mi SE 13.8 mph 17.3 mph N/A   Clear
8:15 PM 30.2 °F 21.3 °F 26.6 °F 86% 30.09 in 9.0 mi ESE 10.4 mph - N/A   Clear
8:35 PM 30.2 °F 21.9 °F 24.8 °F 80% 30.08 in 8.0 mi ESE 9.2 mph - N/A   Clear
8:55 PM 28.4 °F 19.7 °F 24.8 °F 86% 30.08 in 7.0 mi ESE 9.2 mph - N/A   Clear
9:15 PM 28.4 °F 19.7 °F 24.8 °F 86% 30.07 in 5.0 mi ESE 9.2 mph - N/A   Scattered Clouds
9:35 PM 30.2 °F 21.3 °F 26.6 °F 86% 30.07 in 5.0 mi East 10.4 mph - N/A   Partly Cloudy
9:55 PM 30.2 °F 20.2 °F 26.6 °F 86% 30.05 in 5.0 mi ESE 12.7 mph - N/A   Clear
10:15 PM 30.2 °F 21.9 °F 26.6 °F 86% 30.05 in 5.0 mi ESE 9.2 mph - N/A   Mostly Cloudy
10:35 PM 30.2 °F 21.9 °F 26.6 °F 86% 30.04 in 5.0 mi ESE 9.2 mph - N/A   Overcast
10:55 PM 30.2 °F 21.3 °F 26.6 °F 86% 30.03 in 5.0 mi ESE 10.4 mph - N/A   Mostly Cloudy
11:15 PM 28.4 °F 19.1 °F 24.8 °F 86% 30.03 in 5.0 mi ESE 10.4 mph - N/A   Scattered Clouds
11:35 PM 28.4 °F 20.4 °F 26.6 °F 93% 30.03 in 5.0 mi ESE 8.1 mph - N/A   Mostly Cloudy
11:55 PM 30.2 °F 21.9 °F 26.6 °F 86% 30.03 in 5.0 mi ESE 9.2 mph - N/A   Overcast